CW7944 Weather Reports


Display with metric or nautical units.
time (UTC)temp
F
wind
direction
speed
MPH
gust
MPH
rain 1hr
in
rain 24hr
in
rain mn
in
humidity
%
barometer
mb
20230128224501 27 107 1.0 0.0 0.00 0.00 0.00 79 1011.8
20230128223101 28 35 1.0 0.0 0.00 0.00 0.00 78 1011.5
20230128221616 28 35 0.0 0.0 0.00 0.00 0.00 76 1011.1
20230128220100 28 35 2.0 0.0 0.00 0.00 0.00 75 1010.1
20230128214600 28 35 1.0 0.0 0.00 0.00 0.00 75 1009.8
20230128213101 29 35 1.0 0.0 0.00 0.00 0.00 75 1009.7
20230128211605 29 36 1.0 0.0 0.00 0.00 0.00 75 1009.6
20230128210057 28 36 0.0 0.0 0.00 0.00 0.00 76 1008.5
20230128204601 28 36 0.0 0.0 0.00 0.00 0.00 76 1008.6
20230128203121 28 34 0.0 0.0 0.00 0.00 0.00 76 1008.6
20230128201556 28 34 0.0 0.0 0.00 0.00 0.00 77 1008.7
20230128200056 28 34 0.0 0.0 0.00 0.00 0.00 77 1008.4
20230128194603 28 34 0.0 0.0 0.00 0.00 0.00 77 1008.9
20230128193100 28 34 0.0 0.0 0.00 0.00 0.00 76 1009.0
20230128191555 28 34 1.0 0.0 0.00 0.00 0.00 76 1009.1
20230128190054 28 34 1.0 0.0 0.00 0.00 0.00 75 1009.1
20230128184608 28 34 1.0 0.0 0.00 0.00 0.00 74 1009.2
20230128183053 29 33 1.0 0.0 0.00 0.00 0.00 74 1009.5
20230128181554 29 33 1.0 0.0 0.00 0.00 0.00 74 1009.8
20230128180052 28 33 1.0 0.0 0.00 0.00 0.00 74 1009.8
20230128174553 28 33 1.0 0.0 0.00 0.00 0.00 75 1009.9
20230128173100 28 33 0.0 0.0 0.00 0.00 0.00 75 1010.4
20230128171550 27 33 2.0 0.0 0.00 0.00 0.00 76 1010.6
20230128170050 27 33 2.0 0.0 0.00 0.00 0.00 76 1010.8
20230128164551 27 33 2.0 0.0 0.00 0.00 0.00 76 1011.3
20230128163048 26 31 2.0 0.0 0.00 0.00 0.00 76 1011.3
20230128161546 26 26 3.0 0.0 0.00 0.00 0.00 76 1011.3
20230128160052 25 21 2.0 0.0 0.00 0.00 0.00 76 1010.9
20230128154553 24 44 2.0 0.0 0.00 0.00 0.00 76 1011.2
20230128153039 24 150 0.0 0.0 0.00 0.00 0.00 74 1011.1
20230128151539 24 150 1.0 0.0 0.00 0.00 0.00 72 1011.1
20230128150037 24 151 0.0 0.0 0.00 0.00 0.00 71 1010.7
20230128144534 23 151 0.0 0.0 0.00 0.00 0.00 70 1010.5
20230128143029 23 151 0.0 0.0 0.00 0.00 0.00 69 1010.0
20230128141532 24 151 0.0 0.0 0.00 0.00 0.00 68 1009.8
20230128140025 24 151 0.0 0.0 0.00 0.00 0.00 67 1009.1
20230128134528 25 151 1.0 0.0 0.00 0.00 0.00 66 1008.9
20230128133033 25 150 0.0 0.0 0.00 0.00 0.00 64 1008.4
20230128131519 26 150 2.0 0.0 0.00 0.00 0.00 64 1008.3
20230128130018 26 33 1.0 0.0 0.00 0.00 0.00 64 1007.2
20230128124518 26 33 0.0 0.0 0.00 0.00 0.00 63 1007.2
20230128123018 27 33 0.0 0.0 0.00 0.00 0.00 62 1007.1
20230128121519 26 33 0.0 0.0 0.00 0.00 0.00 63 1007.0
20230128120027 26 33 2.0 0.0 0.00 0.00 0.00 63 1006.5
20230128114536 26 33 0.0 0.0 0.00 0.00 0.00 63 1006.5
20230128113028 26 33 0.0 0.0 0.00 0.00 0.00 63 1006.4
20230128111514 26 33 0.0 0.0 0.00 0.00 0.00 63 1006.2
20230128110012 26 14 1.0 0.0 0.00 0.00 0.00 63 1005.7
20230128104512 26 14 1.0 0.0 0.00 0.00 0.00 63 1005.6
20230128103013 27 14 0.0 0.0 0.00 0.00 0.00 61 1006.0
20230128101504 27 14 1.0 0.0 0.00 0.00 0.00 59 1005.6
20230128100002 28 14 1.0 0.0 0.00 0.00 0.00 57 1005.0
20230128094605 29 14 1.0 0.0 0.00 0.00 0.00 56 1004.9
20230128093054 30 14 0.0 0.0 0.00 0.00 0.00 52 1004.8
20230128091551 32 14 2.0 0.0 0.00 0.00 0.00 50 1004.3
20230128090047 34 18 2.0 0.0 0.00 0.00 0.00 47 1003.2
20230128084543 35 19 2.0 0.0 0.00 0.00 0.00 47 1002.6
20230128083047 36 32 5.0 0.0 0.00 0.00 0.00 47 1001.9
20230128081538 36 144 4.0 0.0 0.00 0.00 0.00 47 1001.6
20230128080035 36 31 4.0 0.0 0.00 0.00 0.00 44 1001.7
20230128074607 36 315 4.0 0.0 0.00 0.00 0.00 43 1001.4
20230128073029 37 67 4.0 0.0 0.00 0.00 0.00 43 1001.3
20230128071527 37 107 3.0 0.0 0.00 0.00 0.00 41 1002.1
20230128070026 37 111 5.0 0.0 0.00 0.00 0.00 40 1001.9
20230128064532 36 40 4.0 0.0 0.00 0.00 0.00 43 1001.9
20230128063027 36 259 4.0 0.0 0.00 0.00 0.00 46 1002.6
20230128061526 36 257 4.0 0.0 0.00 0.00 0.00 47 1002.4
20230128060026 36 304 4.0 0.0 0.00 0.00 0.00 49 1002.8
20230128054523 36 311 6.0 0.0 0.00 0.00 0.00 50 1002.3
20230128053022 35 340 6.0 0.0 0.00 0.00 0.00 53 1002.5
20230128051522 35 312 5.0 0.0 0.00 0.00 0.00 54 1002.4
20230128050027 35 254 6.0 0.0 0.00 0.00 0.00 54 1002.4
20230128044521 36 217 4.0 0.0 0.00 0.00 0.00 54 1002.2
20230128043020 35 271 5.0 0.0 0.00 0.00 0.00 53 1002.8
20230128041530 35 292 5.0 0.0 0.00 0.00 0.00 55 1003.3
20230128040020 35 290 4.0 0.0 0.00 0.00 0.00 55 1003.8
20230128034519 36 197 6.0 0.0 0.00 0.00 0.00 54 1004.2
20230128033018 36 255 6.0 0.0 0.00 0.00 0.00 55 1004.3
20230128031518 35 24 6.0 0.0 0.00 0.00 0.00 56 1004.3
20230128030017 35 284 4.0 0.0 0.00 0.00 0.00 56 1004.3
20230128024516 35 292 5.0 0.0 0.00 0.00 0.00 55 1004.3
20230128023016 36 282 6.0 0.0 0.00 0.00 0.00 56 1004.3
20230128021516 36 281 6.0 0.0 0.00 0.00 0.00 55 1004.2
20230128020014 36 304 7.0 0.0 0.00 0.00 0.00 52 1004.4
20230128014513 37 306 6.0 0.0 0.00 0.00 0.00 51 1003.9
20230128013015 37 269 6.0 0.0 0.00 0.00 0.00 49 1004.2
20230128011517 37 260 8.0 0.0 0.00 0.00 0.00 48 1003.8
20230128010010 37 327 5.0 0.0 0.00 0.00 0.00 48 1004.5
20230128004511 38 70 5.0 0.0 0.00 0.00 0.00 47 1005.1
20230128003010 38 200 4.0 0.0 0.00 0.00 0.00 46 1004.1
20230128001517 39 178 6.0 0.0 0.00 0.00 0.00 43 1003.5
20230128000009 39 309 5.0 0.0 0.00 0.00 0.00 41 1003.1
20230127234509 39 249 5.0 0.0 0.00 0.00 0.00 39 1003.7
20230127233008 40 41 3.0 0.0 0.00 0.00 0.00 38 1003.4
20230127231507 40 248 5.0 0.0 0.00 0.00 0.00 38 1003.6
20230127230009 41 172 7.0 0.0 0.00 0.00 0.00 39 1003.4